2022-148A (54230 NORAD) Tracking and Keplerian Element Data

This shows tracking and keplerian element data for the satellite.

Feedback or suggestion? Click here.




ElementValue
Catalog54230
Name2022-148A
Epoch Orbit28
Epoch Day324.86998359
Epoch Year2022
RAAN245.074
Inclination0.0151
Eccentricity0.0006575
Argument of Perigee11.0306
Mean Anonmoly280.3765
Mean Motion1.00270877
Decay Rate-5.7E-07
L11 54230U 22148A 22324.86998359 -.00000057 00000+0 10000-3 0 9997
L22 54230 0.0151 245.0740 0006575 11.0306 280.3765 1.00270877 282



Live tracking and technical data element details for 2022-148A (NORAD 54230). 2022-148A can be tracked NOW for your location showing map with azimuth and elevation plus other details from your city location.







IsCatalogInMostPopularTable: catalog: 54230, numindb: 4
Update: records affected: 1



GetName: 54230 2022-148A

Hit Count: updated at: Sun, 04 Dec 2022 21:21:49 GMT